FW8431 Weather Reports


Display with metric or nautical units.
time (UTC)temp
F
wind
direction
speed
MPH
gust
MPH
rain 1hr
in
rain 24hr
in
rain mn
in
humidity
%
barometer
mb
20260905223106 78 241 0.0 3.0 0.00 0.23 0.23 78 1017.3
20260905221605 78 241 1.0 5.0 0.00 0.23 0.23 78 1017.5
20260905214604 78 234 4.0 7.0 0.00 0.23 0.23 78 1017.6
20260905213111 78 0 1.0 4.0 0.00 0.23 0.23 79 1017.9
20260905211604 77 248 2.0 6.0 0.00 0.23 0.23 81 1018.2
20260905210123 77 240 4.0 8.0 0.00 0.23 0.23 82 1018.4
20260905204602 76 227 3.0 8.0 0.00 0.23 0.23 84 1018.3
20260905203104 75 238 4.0 6.0 0.00 0.23 0.23 85 1018.2
20260905201607 75 214 1.0 4.0 0.00 0.23 0.23 87 1018.4
20260905194608 72 215 2.0 5.0 0.00 0.23 0.23 90 1019.3
20260905193104 71 212 0.0 4.0 0.00 0.23 0.23 91 1019.4
20260905191610 71 0 0.0 3.0 0.03 0.23 0.23 91 1019.2
20260905190109 71 212 0.0 3.0 0.04 0.23 0.23 90 1019.5
20260905184625 72 227 2.0 8.0 0.04 0.23 0.23 89 1019.8
20260905183129 72 296 1.0 3.0 0.04 0.23 0.23 90 1019.4
20260905181607 73 252 4.0 8.0 0.01 0.20 0.20 85 1019.7
20260905180100 75 246 2.0 9.0 0.00 0.19 0.19 85 1019.6
20260905174603 78 236 6.0 13.0 0.00 0.19 0.19 84 1019.5
20260905173116 78 128 3.0 8.0 0.00 0.19 0.19 82 1019.6
20260905171624 77 192 2.0 6.0 0.19 0.19 0.19 96 1019.9
20260905170101 74 84 1.0 4.0 0.19 0.19 0.19 96 1020.0
20260905164559 73 34 0.0 4.0 0.19 0.19 0.19 93 1019.7
20260905163102 74 27 2.0 9.0 0.19 0.19 0.19 86 1020.2
20260905161603 80 0 0.0 4.0 0.00 0.00 0.00 80 1020.3
20260905160059 81 0 0.0 2.0 0.00 0.00 0.00 77 1020.3
20260905154615 80 199 1.0 2.0 0.00 0.00 0.00 79 1020.2
20260905153102 80 199 0.0 2.0 0.00 0.00 0.00 80 1020.4
20260905151613 79 0 1.0 3.0 0.00 0.00 0.00 79 1020.3
20260905150056 78 198 0.0 4.0 0.00 0.00 0.00 84 1020.3
20260905144555 76 198 0.0 3.0 0.00 0.00 0.00 86 1020.2
20260905143055 75 198 1.0 3.0 0.00 0.00 0.00 90 1020.2
20260905141602 73 198 0.0 4.0 0.00 0.00 0.00 92 1020.5
20260905140059 71 198 1.0 3.0 0.00 0.00 0.00 94 1020.6
20260905134556 70 198 1.0 3.0 0.00 0.00 0.00 96 1020.8
20260905133053 69 0 1.0 2.0 0.00 0.00 0.00 98 1020.8
20260905131552 68 0 0.0 2.0 0.00 0.00 0.00 98 1020.8
20260905130059 68 0 0.0 1.0 0.00 0.00 0.00 98 1020.9
20260905124557 66 0 0.0 0.0 0.00 0.00 0.00 98 1021.1
20260905123104 65 0 0.0 0.0 0.00 0.00 0.00 98 1020.9
20260905121602 65 0 0.0 0.0 0.00 0.00 0.00 98 1020.9
20260905120105 64 0 0.0 0.0 0.00 0.00 0.00 98 1020.8
20260905114605 64 0 0.0 0.0 0.00 0.00 0.00 97 1020.6
20260905113101 65 0 0.0 0.0 0.00 0.00 0.00 97 1020.5
20260905111644 65 0 0.0 0.0 0.00 0.00 0.00 97 1020.2
20260905110057 65 0 0.0 0.0 0.00 0.00 0.00 98 1019.9
20260905104607 65 0 0.0 0.0 0.00 0.00 0.00 98 1019.9
20260905103104 65 0 0.0 0.0 0.00 0.00 0.00 97 1019.8
20260905101605 64 0 0.0 0.0 0.00 0.00 0.00 97 1019.8
20260905094557 65 0 0.0 0.0 0.00 0.00 0.00 97 1019.5
20260905093106 65 0 0.0 0.0 0.00 0.00 0.00 97 1019.5
20260905091559 66 0 0.0 0.0 0.00 0.00 0.00 97 1019.6
20260905090055 66 0 0.0 0.0 0.00 0.00 0.00 97 1019.8
20260905084603 66 0 0.0 0.0 0.00 0.00 0.00 97 1020.1
20260905083102 66 0 0.0 0.0 0.00 0.00 0.00 97 1020.1
20260905081557 66 0 0.0 0.0 0.00 0.00 0.00 97 1020.2
20260905080110 66 0 0.0 0.0 0.00 0.00 0.00 97 1020.3
20260905074553 66 0 0.0 0.0 0.00 0.00 0.00 97 1020.2
20260905073102 67 0 0.0 0.0 0.00 0.00 0.00 96 1020.4
20260905071559 67 0 0.0 0.0 0.00 0.00 0.00 97 1020.6
20260905070057 67 0 0.0 0.0 0.00 0.00 0.00 96 1020.6
20260905064605 67 0 0.0 0.0 0.00 0.00 0.00 96 1020.6
20260905063100 67 0 0.0 0.0 0.00 0.00 0.00 96 1020.7
20260905061610 68 0 0.0 0.0 0.00 0.00 0.00 96 1020.6
20260905060058 67 0 0.0 0.0 0.00 0.00 0.00 95 1021.1
20260905054554 68 0 0.0 0.0 0.00 0.00 0.00 95 1021.0
20260905053110 68 0 0.0 0.0 0.00 0.00 0.00 95 1021.1
20260905051558 68 0 0.0 2.0 0.00 0.00 0.00 94 1021.2
20260905050059 68 0 0.0 1.0 0.00 0.00 0.00 94 1021.0
20260905044555 68 198 0.0 1.0 0.00 0.00 0.00 93 1020.9
20260905043101 68 0 0.0 2.0 0.00 0.00 0.00 94 1021.0
20260905041601 69 0 0.0 2.0 0.00 0.00 0.00 93 1020.8
20260905040107 69 0 0.0 2.0 0.00 0.00 0.00 93 1020.9
20260905034618 69 0 0.0 2.0 0.00 0.00 0.00 92 1021.0
20260905033117 70 0 0.0 2.0 0.00 0.00 0.00 92 1021.2
20260905031611 70 0 0.0 2.0 0.00 0.00 0.00 92 1021.2
20260905030104 70 0 0.0 0.0 0.00 0.00 0.00 91 1021.0
20260905024604 70 0 0.0 3.0 0.00 0.00 0.00 91 1021.3
20260905023127 71 0 0.0 3.0 0.00 0.00 0.00 90 1021.6
20260905021604 71 198 0.0 2.0 0.00 0.00 0.00 90 1021.6
20260905014604 72 0 0.0 0.0 0.00 0.00 0.00 88 1021.8
20260905013058 72 0 0.0 1.0 0.00 0.00 0.00 87 1022.0
20260905011601 72 198 1.0 2.0 0.00 0.00 0.00 87 1021.7
20260905010107 72 0 0.0 2.0 0.00 0.00 0.00 85 1021.6
20260905004609 73 198 1.0 2.0 0.00 0.00 0.00 84 1021.5
20260905003120 74 198 0.0 2.0 0.00 0.00 0.00 83 1021.3
20260905001602 75 0 0.0 2.0 0.00 0.00 0.00 83 1021.1
20260905000118 76 0 0.0 0.0 0.00 0.00 0.00 82 1021.1
20260904234607 77 0 0.0 2.0 0.00 0.00 0.00 82 1020.9
20260904233100 78 0 0.0 0.0 0.00 0.00 0.00 79 1021.0
20260904231559 79 0 0.0 0.0 0.00 0.00 0.00 76 1020.6
20260904230112 81 0 1.0 2.0 0.00 0.00 0.00 75 1020.6
20260904224556 83 198 1.0 3.0 0.00 0.00 0.00 70 1020.5